Year,Month,Day,Hour,Minute,Value (Times are PST for temperature in C)
2013,07,15,00,00,14.80
2013,07,15,00,01,14.80
2013,07,15,00,02,14.80
2013,07,15,00,03,14.80
2013,07,15,00,04,14.80
2013,07,15,00,05,14.80
2013,07,15,00,06,14.80
2013,07,15,00,07,14.80
2013,07,15,00,08,14.70
2013,07,15,00,09,14.70
2013,07,15,00,10,14.70
2013,07,15,00,11,14.70
2013,07,15,00,12,14.70
2013,07,15,00,13,14.70
2013,07,15,00,14,14.60
2013,07,15,00,15,14.60
2013,07,15,00,16,14.60
2013,07,15,00,17,14.60
2013,07,15,00,18,14.60
2013,07,15,00,19,14.50
2013,07,15,00,20,14.50
2013,07,15,00,21,14.50
2013,07,15,00,22,14.50
2013,07,15,00,23,14.40
2013,07,15,00,24,14.40
2013,07,15,00,25,14.40
2013,07,15,00,26,14.30
2013,07,15,00,27,14.30
2013,07,15,00,28,14.20
2013,07,15,00,29,14.20
2013,07,15,00,30,14.20
2013,07,15,00,31,14.20
2013,07,15,00,32,14.20
2013,07,15,00,33,14.10
2013,07,15,00,34,14.10
2013,07,15,00,35,14.10
2013,07,15,00,36,14.00
2013,07,15,00,37,14.00
2013,07,15,00,38,14.00
2013,07,15,00,39,14.00
2013,07,15,00,40,13.90
2013,07,15,00,41,13.90
2013,07,15,00,42,13.90
2013,07,15,00,43,13.90
2013,07,15,00,44,13.90
2013,07,15,00,45,13.90
2013,07,15,00,46,13.80
2013,07,15,00,47,13.80
2013,07,15,00,48,13.80
2013,07,15,00,49,13.80
2013,07,15,00,50,13.70
2013,07,15,00,51,13.70
2013,07,15,00,52,13.70
2013,07,15,00,53,13.70
2013,07,15,00,54,13.70
2013,07,15,00,55,13.70
2013,07,15,00,56,13.70
2013,07,15,00,57,13.70
2013,07,15,00,58,13.70
2013,07,15,00,59,13.70
2013,07,15,01,00,13.60
2013,07,15,01,01,13.60
2013,07,15,01,02,13.60
2013,07,15,01,03,13.60
2013,07,15,01,04,13.60
2013,07,15,01,05,13.60
2013,07,15,01,06,13.60
2013,07,15,01,07,13.60
2013,07,15,01,08,13.50
2013,07,15,01,09,13.50
2013,07,15,01,10,13.50
2013,07,15,01,11,13.50
2013,07,15,01,12,13.50
2013,07,15,01,13,13.50
2013,07,15,01,14,13.50
2013,07,15,01,15,13.40
2013,07,15,01,16,13.40
2013,07,15,01,17,13.40
2013,07,15,01,18,13.40
2013,07,15,01,19,13.40
2013,07,15,01,20,13.30
2013,07,15,01,21,13.30
2013,07,15,01,22,13.30
2013,07,15,01,23,13.30
2013,07,15,01,24,13.30
2013,07,15,01,25,13.30
2013,07,15,01,26,13.30
2013,07,15,01,27,13.30
2013,07,15,01,28,13.30
2013,07,15,01,29,13.30
2013,07,15,01,30,13.30
2013,07,15,01,31,13.30
2013,07,15,01,32,13.30
2013,07,15,01,33,13.30
2013,07,15,01,34,13.30
2013,07,15,01,35,13.30
2013,07,15,01,36,13.20
2013,07,15,01,37,13.20
2013,07,15,01,38,13.20
2013,07,15,01,39,13.20
2013,07,15,01,40,13.20
2013,07,15,01,41,13.20
2013,07,15,01,42,13.20
2013,07,15,01,43,13.10
2013,07,15,01,44,13.10
2013,07,15,01,45,13.10
2013,07,15,01,46,13.10
2013,07,15,01,47,13.10
2013,07,15,01,48,13.00
2013,07,15,01,49,13.00
2013,07,15,01,50,13.00
2013,07,15,01,51,13.00
2013,07,15,01,52,12.90
2013,07,15,01,53,12.90
2013,07,15,01,54,12.90
2013,07,15,01,55,12.90
2013,07,15,01,56,12.90
2013,07,15,01,57,12.90
2013,07,15,01,58,12.90
2013,07,15,01,59,12.90
2013,07,15,02,00,12.80
2013,07,15,02,01,12.80
2013,07,15,02,02,12.80
2013,07,15,02,03,12.80
2013,07,15,02,04,12.80
2013,07,15,02,05,12.80
2013,07,15,02,06,12.80
2013,07,15,02,07,12.70
2013,07,15,02,08,12.70
2013,07,15,02,09,12.70
2013,07,15,02,10,12.70
2013,07,15,02,11,12.60
2013,07,15,02,12,12.60
2013,07,15,02,13,12.60
2013,07,15,02,14,12.60
2013,07,15,02,15,12.50
2013,07,15,02,16,12.50
2013,07,15,02,17,12.50
2013,07,15,02,18,12.50
2013,07,15,02,19,12.40
2013,07,15,02,20,12.40
2013,07,15,02,21,12.40
2013,07,15,02,22,12.40
2013,07,15,02,23,12.40
2013,07,15,02,24,12.30
2013,07,15,02,25,12.30
2013,07,15,02,26,12.30
2013,07,15,02,27,12.30
2013,07,15,02,28,12.30
2013,07,15,02,29,12.30
2013,07,15,02,30,12.40
2013,07,15,02,31,12.40
2013,07,15,02,32,12.40
2013,07,15,02,33,12.40
2013,07,15,02,34,12.40
2013,07,15,02,35,12.40
2013,07,15,02,36,12.30
2013,07,15,02,37,12.30
2013,07,15,02,38,12.30
2013,07,15,02,39,12.30
2013,07,15,02,40,12.40
2013,07,15,02,41,12.40
2013,07,15,02,42,12.40
2013,07,15,02,43,12.40
2013,07,15,02,44,12.40
2013,07,15,02,45,12.40
2013,07,15,02,46,12.40
2013,07,15,02,47,12.40
2013,07,15,02,48,12.30
2013,07,15,02,49,12.30
2013,07,15,02,50,12.30
2013,07,15,02,51,12.30
2013,07,15,02,52,12.30
2013,07,15,02,53,12.30
2013,07,15,02,54,12.30
2013,07,15,02,55,12.30
2013,07,15,02,56,12.30
2013,07,15,02,57,12.30
2013,07,15,02,58,12.30
2013,07,15,02,59,12.30
2013,07,15,03,00,12.30
2013,07,15,03,01,12.30
2013,07,15,03,02,12.30
2013,07,15,03,03,12.30
2013,07,15,03,04,12.30
2013,07,15,03,05,12.30
2013,07,15,03,06,12.30
2013,07,15,03,07,12.30
2013,07,15,03,08,12.30
2013,07,15,03,09,12.30
2013,07,15,03,10,12.30
2013,07,15,03,11,12.20
2013,07,15,03,12,12.30
2013,07,15,03,13,12.30
2013,07,15,03,14,12.30
2013,07,15,03,15,12.30
2013,07,15,03,16,12.30
2013,07,15,03,17,12.30
2013,07,15,03,18,12.30
2013,07,15,03,19,12.30
2013,07,15,03,20,12.30
2013,07,15,03,21,12.30
2013,07,15,03,22,12.20
2013,07,15,03,23,12.20
2013,07,15,03,24,12.20
2013,07,15,03,25,12.20
2013,07,15,03,26,12.20
2013,07,15,03,27,12.20
2013,07,15,03,28,12.20
2013,07,15,03,29,12.10
2013,07,15,03,30,12.10
2013,07,15,03,31,12.10
2013,07,15,03,32,12.10
2013,07,15,03,33,12.00
2013,07,15,03,34,12.00
2013,07,15,03,35,12.00
2013,07,15,03,36,12.00
2013,07,15,03,37,12.00
2013,07,15,03,38,12.00
2013,07,15,03,39,11.90
2013,07,15,03,40,11.90
2013,07,15,03,41,11.90
2013,07,15,03,42,11.90
2013,07,15,03,43,11.90
2013,07,15,03,44,11.90
2013,07,15,03,45,11.90
2013,07,15,03,46,11.90
2013,07,15,03,47,11.90
2013,07,15,03,48,11.90
2013,07,15,03,49,11.90
2013,07,15,03,50,11.90
2013,07,15,03,51,11.90
2013,07,15,03,52,12.00
2013,07,15,03,53,12.00
2013,07,15,03,54,12.00
2013,07,15,03,55,11.90
2013,07,15,03,56,11.90
2013,07,15,03,57,11.90
2013,07,15,03,58,11.90
2013,07,15,03,59,11.90
2013,07,15,04,00,11.90
2013,07,15,04,01,11.90
2013,07,15,04,02,12.00
2013,07,15,04,03,12.00
2013,07,15,04,04,12.00
2013,07,15,04,05,12.00
2013,07,15,04,06,12.00
2013,07,15,04,07,12.00
2013,07,15,04,08,12.00
2013,07,15,04,09,12.00
2013,07,15,04,10,12.00
2013,07,15,04,11,12.00
2013,07,15,04,12,11.90
2013,07,15,04,13,11.90
2013,07,15,04,14,11.90
2013,07,15,04,15,11.90
2013,07,15,04,16,11.80
2013,07,15,04,17,11.80
2013,07,15,04,18,11.80
2013,07,15,04,19,11.80
2013,07,15,04,20,11.80
2013,07,15,04,21,11.80
2013,07,15,04,22,11.80
2013,07,15,04,23,11.80
2013,07,15,04,24,11.80
2013,07,15,04,25,11.80
2013,07,15,04,26,11.80
2013,07,15,04,27,11.80
2013,07,15,04,28,11.80
2013,07,15,04,29,11.80
2013,07,15,04,30,11.80
2013,07,15,04,31,11.80
2013,07,15,04,32,11.80
2013,07,15,04,33,11.80
2013,07,15,04,34,11.80
2013,07,15,04,35,11.80
2013,07,15,04,36,11.90
2013,07,15,04,37,11.90
2013,07,15,04,38,11.90
2013,07,15,04,39,11.90
2013,07,15,04,40,11.80
2013,07,15,04,41,11.90
2013,07,15,04,42,11.90
2013,07,15,04,43,11.90
2013,07,15,04,44,12.00
2013,07,15,04,45,12.00
2013,07,15,04,46,12.00
2013,07,15,04,47,12.00
2013,07,15,04,48,12.00
2013,07,15,04,49,12.00
2013,07,15,04,50,12.00
2013,07,15,04,51,12.00
2013,07,15,04,52,12.00
2013,07,15,04,53,12.00
2013,07,15,04,54,12.00
2013,07,15,04,55,12.00
2013,07,15,04,56,12.00
2013,07,15,04,57,12.00
2013,07,15,04,58,12.00
2013,07,15,04,59,12.00
2013,07,15,05,00,12.00
2013,07,15,05,01,12.00
2013,07,15,05,02,12.00
2013,07,15,05,03,12.00
2013,07,15,05,04,12.00
2013,07,15,05,05,12.00
2013,07,15,05,06,12.00
2013,07,15,05,07,12.00
2013,07,15,05,08,12.00
2013,07,15,05,09,11.90
2013,07,15,05,10,11.90
2013,07,15,05,11,11.90
2013,07,15,05,12,11.90
2013,07,15,05,13,11.80
2013,07,15,05,14,11.80
2013,07,15,05,15,11.80
2013,07,15,05,16,11.80
2013,07,15,05,17,11.80
2013,07,15,05,18,11.80
2013,07,15,05,19,11.80
2013,07,15,05,20,11.70
2013,07,15,05,21,11.70
2013,07,15,05,22,11.70
2013,07,15,05,23,11.70
2013,07,15,05,24,11.70
2013,07,15,05,25,11.70
2013,07,15,05,26,11.70
2013,07,15,05,27,11.70
2013,07,15,05,28,11.70
2013,07,15,05,29,11.70
2013,07,15,05,30,11.70
2013,07,15,05,31,11.70
2013,07,15,05,32,11.70
2013,07,15,05,33,11.70
2013,07,15,05,34,11.60
2013,07,15,05,35,11.60
2013,07,15,05,36,11.60
2013,07,15,05,37,11.60
2013,07,15,05,38,11.60
2013,07,15,05,39,11.60
2013,07,15,05,40,11.60
2013,07,15,05,41,11.60
2013,07,15,05,42,11.60
2013,07,15,05,43,11.60
2013,07,15,05,44,11.60
2013,07,15,05,45,11.60
2013,07,15,05,46,11.60
2013,07,15,05,47,11.60
2013,07,15,05,48,11.60
2013,07,15,05,49,11.60
2013,07,15,05,50,11.60
2013,07,15,05,51,11.60
2013,07,15,05,52,11.60
2013,07,15,05,53,11.70
2013,07,15,05,54,11.70
2013,07,15,05,55,11.80
2013,07,15,05,56,11.80
2013,07,15,05,57,11.80
2013,07,15,05,58,11.80
2013,07,15,05,59,11.80
2013,07,15,06,00,11.90
2013,07,15,06,01,11.90
2013,07,15,06,02,11.90
2013,07,15,06,03,11.90
2013,07,15,06,04,11.90
2013,07,15,06,05,11.90
2013,07,15,06,06,11.90
2013,07,15,06,07,12.00
2013,07,15,06,08,12.00
2013,07,15,06,09,12.10
2013,07,15,06,10,12.20
2013,07,15,06,11,12.20
2013,07,15,06,12,12.30
2013,07,15,06,13,12.30
2013,07,15,06,14,12.30
2013,07,15,06,15,12.40
2013,07,15,06,16,12.40
2013,07,15,06,17,12.50
2013,07,15,06,18,12.50
2013,07,15,06,19,12.60
2013,07,15,06,20,12.70
2013,07,15,06,21,12.80
2013,07,15,06,22,12.80
2013,07,15,06,23,12.90
2013,07,15,06,24,13.00
2013,07,15,06,25,13.00
2013,07,15,06,26,13.00
2013,07,15,06,27,13.00
2013,07,15,06,28,13.00
2013,07,15,06,29,13.00
2013,07,15,06,30,13.10
2013,07,15,06,31,13.10
2013,07,15,06,32,13.10
2013,07,15,06,33,13.10
2013,07,15,06,34,13.20
2013,07,15,06,35,13.20
2013,07,15,06,36,13.20
2013,07,15,06,37,13.30
2013,07,15,06,38,13.30
2013,07,15,06,39,13.40
2013,07,15,06,40,13.50
2013,07,15,06,41,13.60
2013,07,15,06,42,13.60
2013,07,15,06,43,13.70
2013,07,15,06,44,13.90
2013,07,15,06,45,14.00
2013,07,15,06,46,14.10
2013,07,15,06,47,14.20
2013,07,15,06,48,14.30
2013,07,15,06,49,14.40
2013,07,15,06,50,14.50
2013,07,15,06,51,14.60
2013,07,15,06,52,14.60
2013,07,15,06,53,14.70
2013,07,15,06,54,14.80
2013,07,15,06,55,14.80
2013,07,15,06,56,14.90
2013,07,15,06,57,15.00
2013,07,15,06,58,15.10
2013,07,15,06,59,15.20
2013,07,15,07,00,15.30
2013,07,15,07,01,15.40
2013,07,15,07,02,15.50
2013,07,15,07,03,15.50
2013,07,15,07,04,15.60
2013,07,15,07,05,15.70
2013,07,15,07,06,15.80
2013,07,15,07,07,15.80
2013,07,15,07,08,15.90
2013,07,15,07,09,16.00
2013,07,15,07,10,16.10
2013,07,15,07,11,16.10
2013,07,15,07,12,16.10
2013,07,15,07,13,16.20
2013,07,15,07,14,16.30
2013,07,15,07,15,16.40
2013,07,15,07,16,16.40
2013,07,15,07,17,16.50
2013,07,15,07,18,16.60
2013,07,15,07,19,16.70
2013,07,15,07,20,16.80
2013,07,15,07,21,16.80
2013,07,15,07,22,16.90
2013,07,15,07,23,17.00
2013,07,15,07,24,17.00
2013,07,15,07,25,17.10
2013,07,15,07,26,17.20
2013,07,15,07,27,17.30
2013,07,15,07,28,17.30
2013,07,15,07,29,17.40
2013,07,15,07,30,17.50
2013,07,15,07,31,17.50
2013,07,15,07,32,17.60
2013,07,15,07,33,17.70
2013,07,15,07,34,17.70
2013,07,15,07,35,17.80
2013,07,15,07,36,17.80
2013,07,15,07,37,17.80
2013,07,15,07,38,17.90
2013,07,15,07,39,17.90
2013,07,15,07,40,17.90
2013,07,15,07,41,17.90
2013,07,15,07,42,18.00
2013,07,15,07,43,18.10
2013,07,15,07,44,18.20
2013,07,15,07,45,18.20
2013,07,15,07,46,18.20
2013,07,15,07,47,18.20
2013,07,15,07,48,18.20
2013,07,15,07,49,18.20
2013,07,15,07,50,18.20
2013,07,15,07,51,18.20
2013,07,15,07,52,18.20
2013,07,15,07,53,18.10
2013,07,15,07,54,18.10
2013,07,15,07,55,18.10
2013,07,15,07,56,18.10
2013,07,15,07,57,18.20
2013,07,15,07,58,18.20
2013,07,15,07,59,18.20
2013,07,15,08,00,18.20
2013,07,15,08,01,18.20
2013,07,15,08,02,18.30
2013,07,15,08,03,18.30
2013,07,15,08,04,18.40
2013,07,15,08,05,18.50
2013,07,15,08,06,18.50
2013,07,15,08,07,18.60
2013,07,15,08,08,18.60
2013,07,15,08,09,18.60
2013,07,15,08,10,18.60
2013,07,15,08,11,18.60
2013,07,15,08,12,18.60
2013,07,15,08,13,18.60
2013,07,15,08,14,18.60
2013,07,15,08,15,18.70
2013,07,15,08,16,18.70
2013,07,15,08,17,18.70
2013,07,15,08,18,18.80
2013,07,15,08,19,18.80
2013,07,15,08,20,18.90
2013,07,15,08,21,18.90
2013,07,15,08,22,19.10
2013,07,15,08,23,19.10
2013,07,15,08,24,19.30
2013,07,15,08,25,19.30
2013,07,15,08,26,19.40
2013,07,15,08,27,19.40
2013,07,15,08,28,19.40
2013,07,15,08,29,19.40
2013,07,15,08,30,19.40
2013,07,15,08,31,19.50
2013,07,15,08,32,19.50
2013,07,15,08,33,19.50
2013,07,15,08,34,19.50
2013,07,15,08,35,19.50
2013,07,15,08,36,19.60
2013,07,15,08,37,19.60
2013,07,15,08,38,19.70
2013,07,15,08,39,19.80
2013,07,15,08,40,19.80
2013,07,15,08,41,19.90
2013,07,15,08,42,20.00
2013,07,15,08,43,20.10
2013,07,15,08,44,20.20
2013,07,15,08,45,20.20
2013,07,15,08,46,20.20
2013,07,15,08,47,20.20
2013,07,15,08,48,20.30
2013,07,15,08,49,20.30
2013,07,15,08,50,20.40
2013,07,15,08,51,20.40
2013,07,15,08,52,20.40
2013,07,15,08,53,20.40
2013,07,15,08,54,20.40
2013,07,15,08,55,20.40
2013,07,15,08,56,20.30
2013,07,15,08,57,20.20
2013,07,15,08,58,20.20
2013,07,15,08,59,20.20
2013,07,15,09,00,20.20
2013,07,15,09,01,20.20
2013,07,15,09,02,20.30
2013,07,15,09,03,20.30
2013,07,15,09,04,20.40
2013,07,15,09,05,20.40
2013,07,15,09,06,20.40
2013,07,15,09,07,20.40
2013,07,15,09,08,20.40
2013,07,15,09,09,20.40
2013,07,15,09,10,20.30
2013,07,15,09,11,20.30
2013,07,15,09,12,20.30
2013,07,15,09,13,20.30
2013,07,15,09,14,20.30
2013,07,15,09,15,20.40
2013,07,15,09,16,20.40
2013,07,15,09,17,20.50
2013,07,15,09,18,20.50
2013,07,15,09,19,20.40
2013,07,15,09,20,20.50
2013,07,15,09,21,20.50
2013,07,15,09,22,20.60
2013,07,15,09,23,20.60
2013,07,15,09,24,20.60
2013,07,15,09,25,20.60
2013,07,15,09,26,20.60
2013,07,15,09,27,20.60
2013,07,15,09,28,20.60
2013,07,15,09,29,20.70
2013,07,15,09,30,20.80
2013,07,15,09,31,20.80
2013,07,15,09,32,20.90
2013,07,15,09,33,20.90
2013,07,15,09,34,21.00
2013,07,15,09,35,21.00
2013,07,15,09,36,21.00
2013,07,15,09,37,21.10
2013,07,15,09,38,21.20
2013,07,15,09,39,21.20
2013,07,15,09,40,21.20
2013,07,15,09,41,21.30
2013,07,15,09,42,21.30
2013,07,15,09,43,21.30
2013,07,15,09,44,21.30
2013,07,15,09,45,21.30
2013,07,15,09,46,21.30
2013,07,15,09,47,21.30
2013,07,15,09,48,21.30
2013,07,15,09,49,21.40
2013,07,15,09,50,21.40
2013,07,15,09,51,21.40
2013,07,15,09,52,21.30
2013,07,15,09,53,21.30
2013,07,15,09,54,21.40
2013,07,15,09,55,21.40
2013,07,15,09,56,21.50
2013,07,15,09,57,21.60
2013,07,15,09,58,21.60
2013,07,15,09,59,21.60
2013,07,15,10,00,21.60
2013,07,15,10,01,21.60
2013,07,15,10,02,21.60
2013,07,15,10,03,21.60
2013,07,15,10,04,21.60
2013,07,15,10,05,21.60
2013,07,15,10,06,21.70
2013,07,15,10,07,21.80
2013,07,15,10,08,21.80
2013,07,15,10,09,21.90
2013,07,15,10,10,21.90
2013,07,15,10,11,22.00
2013,07,15,10,12,22.00
2013,07,15,10,13,22.10
2013,07,15,10,14,22.20
2013,07,15,10,15,22.20
2013,07,15,10,16,22.30
2013,07,15,10,17,22.30
2013,07,15,10,18,22.20
2013,07,15,10,19,22.20
2013,07,15,10,20,22.10
2013,07,15,10,21,22.00
2013,07,15,10,22,22.00
2013,07,15,10,23,22.00
2013,07,15,10,24,22.00
2013,07,15,10,25,22.00
2013,07,15,10,26,22.00
2013,07,15,10,27,22.00
2013,07,15,10,28,22.00
2013,07,15,10,29,22.00
2013,07,15,10,30,22.10
2013,07,15,10,31,22.10
2013,07,15,10,32,22.10
2013,07,15,10,33,22.20
2013,07,15,10,34,22.20
2013,07,15,10,35,22.20
2013,07,15,10,36,22.20
2013,07,15,10,37,22.30
2013,07,15,10,38,22.30
2013,07,15,10,39,22.30
2013,07,15,10,40,22.40
2013,07,15,10,41,22.50
2013,07,15,10,42,22.60
2013,07,15,10,43,22.70
2013,07,15,10,44,22.80
2013,07,15,10,45,22.90
2013,07,15,10,46,22.90
2013,07,15,10,47,22.90
2013,07,15,10,48,22.90
2013,07,15,10,49,22.90
2013,07,15,10,50,22.90
2013,07,15,10,51,22.90
2013,07,15,10,52,22.90
2013,07,15,10,53,22.90
2013,07,15,10,54,22.90
2013,07,15,10,55,22.90
2013,07,15,10,56,22.90
2013,07,15,10,57,22.90
2013,07,15,10,58,22.90
2013,07,15,10,59,22.90
2013,07,15,11,00,22.90
2013,07,15,11,01,22.90
2013,07,15,11,02,23.10
2013,07,15,11,03,23.10
2013,07,15,11,04,23.20
2013,07,15,11,05,23.20
2013,07,15,11,06,23.30
2013,07,15,11,07,23.30
2013,07,15,11,08,23.30
2013,07,15,11,09,23.30
2013,07,15,11,10,23.20
2013,07,15,11,11,23.20
2013,07,15,11,12,23.10
2013,07,15,11,13,23.10
2013,07,15,11,14,23.10
2013,07,15,11,15,23.10
2013,07,15,11,16,23.10
2013,07,15,11,17,23.20
2013,07,15,11,18,23.20
2013,07,15,11,19,23.30
2013,07,15,11,20,23.30
2013,07,15,11,21,23.30
2013,07,15,11,22,23.30
2013,07,15,11,23,23.30
2013,07,15,11,24,23.30
2013,07,15,11,25,23.40
2013,07,15,11,26,23.60
2013,07,15,11,27,23.60
2013,07,15,11,28,23.70
2013,07,15,11,29,23.70
2013,07,15,11,30,23.70
2013,07,15,11,31,23.70
2013,07,15,11,32,23.70
2013,07,15,11,33,23.70
2013,07,15,11,34,23.70
2013,07,15,11,35,23.70
2013,07,15,11,36,23.70
2013,07,15,11,37,23.70
2013,07,15,11,38,23.70
2013,07,15,11,39,23.70
2013,07,15,11,40,23.70
2013,07,15,11,41,23.70
2013,07,15,11,42,23.70
2013,07,15,11,43,23.70
2013,07,15,11,44,23.70
2013,07,15,11,45,23.60
2013,07,15,11,46,23.60
2013,07,15,11,47,23.50
2013,07,15,11,48,23.50
2013,07,15,11,49,23.50
2013,07,15,11,50,23.50
2013,07,15,11,51,23.40
2013,07,15,11,52,23.40
2013,07,15,11,53,23.40
2013,07,15,11,54,23.40
2013,07,15,11,55,23.40
2013,07,15,11,56,23.40
2013,07,15,11,57,23.50
2013,07,15,11,58,23.60
2013,07,15,11,59,23.50
2013,07,15,12,00,23.40
2013,07,15,12,01,23.40
2013,07,15,12,02,23.50
2013,07,15,12,03,23.60
2013,07,15,12,04,23.70
2013,07,15,12,05,23.70
2013,07,15,12,06,23.70
2013,07,15,12,07,23.70
2013,07,15,12,08,23.80
2013,07,15,12,09,23.80
2013,07,15,12,10,23.90
2013,07,15,12,11,23.80
2013,07,15,12,12,23.80
2013,07,15,12,13,23.80
2013,07,15,12,14,23.80
2013,07,15,12,15,23.80
2013,07,15,12,16,23.80
2013,07,15,12,17,23.80
2013,07,15,12,18,23.90
2013,07,15,12,19,24.00
2013,07,15,12,20,24.10
2013,07,15,12,21,24.10
2013,07,15,12,22,24.10
2013,07,15,12,23,24.20
2013,07,15,12,24,24.20
2013,07,15,12,25,24.30
2013,07,15,12,26,24.30
2013,07,15,12,27,24.30
2013,07,15,12,28,24.30
2013,07,15,12,29,24.20
2013,07,15,12,30,24.10
2013,07,15,12,31,24.10
2013,07,15,12,32,24.10
2013,07,15,12,33,24.10
2013,07,15,12,34,24.10
2013,07,15,12,35,24.10
2013,07,15,12,36,24.10
2013,07,15,12,37,24.10
2013,07,15,12,38,24.10
2013,07,15,12,39,24.10
2013,07,15,12,40,24.20
2013,07,15,12,41,24.20
2013,07,15,12,42,24.20
2013,07,15,12,43,24.30
2013,07,15,12,44,24.30
2013,07,15,12,45,24.40
2013,07,15,12,46,24.40
2013,07,15,12,47,24.40
2013,07,15,12,48,24.50
2013,07,15,12,49,24.50
2013,07,15,12,50,24.50
2013,07,15,12,51,24.50
2013,07,15,12,52,24.50
2013,07,15,12,53,24.50
2013,07,15,12,54,24.50
2013,07,15,12,55,24.50
2013,07,15,12,56,24.50
2013,07,15,12,57,24.60
2013,07,15,12,58,24.60
2013,07,15,12,59,24.60
2013,07,15,13,00,24.50
2013,07,15,13,01,24.50
2013,07,15,13,02,24.60
2013,07,15,13,03,24.50
2013,07,15,13,04,24.50
2013,07,15,13,05,24.60
2013,07,15,13,06,24.60
2013,07,15,13,07,24.60
2013,07,15,13,08,24.50
2013,07,15,13,09,24.60
2013,07,15,13,10,24.60
2013,07,15,13,11,24.70
2013,07,15,13,12,24.80
2013,07,15,13,13,24.90
2013,07,15,13,14,24.90
2013,07,15,13,15,25.00
2013,07,15,13,16,25.10
2013,07,15,13,17,25.10
2013,07,15,13,18,25.00
2013,07,15,13,19,25.00
2013,07,15,13,20,24.90
2013,07,15,13,21,24.90
2013,07,15,13,22,24.90
2013,07,15,13,23,24.90
2013,07,15,13,24,24.90
2013,07,15,13,25,25.00
2013,07,15,13,26,25.00
2013,07,15,13,27,25.00
2013,07,15,13,28,25.10
2013,07,15,13,29,25.20
2013,07,15,13,30,25.20
2013,07,15,13,31,25.30
2013,07,15,13,32,25.30
2013,07,15,13,33,25.40
2013,07,15,13,34,25.40
2013,07,15,13,35,25.30
2013,07,15,13,36,25.30
2013,07,15,13,37,25.30
2013,07,15,13,38,25.20
2013,07,15,13,39,25.30
2013,07,15,13,40,25.30
2013,07,15,13,41,25.40
2013,07,15,13,42,25.40
2013,07,15,13,43,25.50
2013,07,15,13,44,25.60
2013,07,15,13,45,25.70
2013,07,15,13,46,25.80
2013,07,15,13,47,25.90
2013,07,15,13,48,25.90
2013,07,15,13,49,25.90
2013,07,15,13,50,25.80
2013,07,15,13,51,25.70
2013,07,15,13,52,25.70
2013,07,15,13,53,25.70
2013,07,15,13,54,25.70
2013,07,15,13,55,25.70
2013,07,15,13,56,25.70
2013,07,15,13,57,25.70
2013,07,15,13,58,25.80
2013,07,15,13,59,25.80
2013,07,15,14,00,25.70
2013,07,15,14,01,25.70
2013,07,15,14,02,25.70
2013,07,15,14,03,25.60
2013,07,15,14,04,25.60
2013,07,15,14,05,25.50
2013,07,15,14,06,25.50
2013,07,15,14,07,25.40
2013,07,15,14,08,25.40
2013,07,15,14,09,25.40
2013,07,15,14,10,25.40
2013,07,15,14,11,25.30
2013,07,15,14,12,25.30
2013,07,15,14,13,25.30
2013,07,15,14,14,25.30
2013,07,15,14,15,25.40
2013,07,15,14,16,25.40
2013,07,15,14,17,25.40
2013,07,15,14,18,25.50
2013,07,15,14,19,25.50
2013,07,15,14,20,25.50
2013,07,15,14,21,25.50
2013,07,15,14,22,25.50
2013,07,15,14,23,25.50
2013,07,15,14,24,25.50
2013,07,15,14,25,25.50
2013,07,15,14,26,25.50
2013,07,15,14,27,25.50
2013,07,15,14,28,25.50
2013,07,15,14,29,25.50
2013,07,15,14,30,25.50
2013,07,15,14,31,25.50
2013,07,15,14,32,25.50
2013,07,15,14,33,25.40
2013,07,15,14,34,25.40
2013,07,15,14,35,25.40
2013,07,15,14,36,25.40
2013,07,15,14,37,25.40
2013,07,15,14,38,25.40
2013,07,15,14,39,25.40
2013,07,15,14,40,25.50
2013,07,15,14,41,25.60
2013,07,15,14,42,25.70
2013,07,15,14,43,25.80
2013,07,15,14,44,25.80
2013,07,15,14,45,25.70
2013,07,15,14,46,25.80
2013,07,15,14,47,25.80
2013,07,15,14,48,25.80
2013,07,15,14,49,25.80
2013,07,15,14,50,25.80
2013,07,15,14,51,25.70
2013,07,15,14,52,25.70
2013,07,15,14,53,25.70
2013,07,15,14,54,25.70
2013,07,15,14,55,25.70
2013,07,15,14,56,25.80
2013,07,15,14,57,25.80
2013,07,15,14,58,25.80
2013,07,15,14,59,25.90
2013,07,15,15,00,26.00
2013,07,15,15,01,26.10
2013,07,15,15,02,26.20
2013,07,15,15,03,26.30
2013,07,15,15,04,26.40
2013,07,15,15,05,26.50
2013,07,15,15,06,26.60
2013,07,15,15,07,26.60
2013,07,15,15,08,26.60
2013,07,15,15,09,26.60
2013,07,15,15,10,26.60
2013,07,15,15,11,26.50
2013,07,15,15,12,26.50
2013,07,15,15,13,26.60
2013,07,15,15,14,26.60
2013,07,15,15,15,26.60
2013,07,15,15,16,26.60
2013,07,15,15,17,26.60
2013,07,15,15,18,26.60
2013,07,15,15,19,26.60
2013,07,15,15,20,26.70
2013,07,15,15,21,26.80
2013,07,15,15,22,26.80
2013,07,15,15,23,26.80
2013,07,15,15,24,26.90
2013,07,15,15,25,26.90
2013,07,15,15,26,26.90
2013,07,15,15,27,26.90
2013,07,15,15,28,27.00
2013,07,15,15,29,26.90
2013,07,15,15,30,26.80
2013,07,15,15,31,26.70
2013,07,15,15,32,26.70
2013,07,15,15,33,26.80
2013,07,15,15,34,26.90
2013,07,15,15,35,26.90
2013,07,15,15,36,26.90
2013,07,15,15,37,26.90
2013,07,15,15,38,26.80
2013,07,15,15,39,26.80
2013,07,15,15,40,26.70
2013,07,15,15,41,26.70
2013,07,15,15,42,26.70
2013,07,15,15,43,26.60
2013,07,15,15,44,26.60
2013,07,15,15,45,26.60
2013,07,15,15,46,26.60
2013,07,15,15,47,26.60
2013,07,15,15,48,26.60
2013,07,15,15,49,26.60
2013,07,15,15,50,26.70
2013,07,15,15,51,26.70
2013,07,15,15,52,26.70
2013,07,15,15,53,26.70
2013,07,15,15,54,26.80
2013,07,15,15,55,26.80
2013,07,15,15,56,26.80
2013,07,15,15,57,26.80
2013,07,15,15,58,26.80
2013,07,15,15,59,26.90
2013,07,15,16,00,26.90
2013,07,15,16,01,26.90
2013,07,15,16,02,26.90
2013,07,15,16,03,26.90
2013,07,15,16,04,26.90
2013,07,15,16,05,26.90
2013,07,15,16,06,26.90
2013,07,15,16,07,26.90
2013,07,15,16,08,27.00
2013,07,15,16,09,27.10
2013,07,15,16,10,27.10
2013,07,15,16,11,27.20
2013,07,15,16,12,27.20
2013,07,15,16,13,27.30
2013,07,15,16,14,27.30
2013,07,15,16,15,27.30
2013,07,15,16,16,27.30
2013,07,15,16,17,27.30
2013,07,15,16,18,27.30
2013,07,15,16,19,27.10
2013,07,15,16,20,26.90
2013,07,15,16,21,26.80
2013,07,15,16,22,26.60
2013,07,15,16,23,26.60
2013,07,15,16,24,26.60
2013,07,15,16,25,26.60
2013,07,15,16,26,26.70
2013,07,15,16,27,26.80
2013,07,15,16,28,26.80
2013,07,15,16,29,26.80
2013,07,15,16,30,26.80
2013,07,15,16,31,26.80
2013,07,15,16,32,26.80
2013,07,15,16,33,26.70
2013,07,15,16,34,26.70
2013,07,15,16,35,26.70
2013,07,15,16,36,26.70
2013,07,15,16,37,26.60
2013,07,15,16,38,26.60
2013,07,15,16,39,26.60
2013,07,15,16,40,26.60
2013,07,15,16,41,26.40
2013,07,15,16,42,26.40
2013,07,15,16,43,26.40
2013,07,15,16,44,26.40
2013,07,15,16,45,26.40
2013,07,15,16,46,26.60
2013,07,15,16,47,26.60
2013,07,15,16,48,26.60
2013,07,15,16,49,26.60
2013,07,15,16,50,26.60
2013,07,15,16,51,26.60
2013,07,15,16,52,26.70
2013,07,15,16,53,26.80
2013,07,15,16,54,26.80
2013,07,15,16,55,26.90
2013,07,15,16,56,26.90
2013,07,15,16,57,27.10
2013,07,15,16,58,27.10
2013,07,15,16,59,27.20
2013,07,15,17,00,27.20
2013,07,15,17,01,27.10
2013,07,15,17,02,27.00
2013,07,15,17,03,26.90
2013,07,15,17,04,26.80
2013,07,15,17,05,26.80
2013,07,15,17,06,26.70
2013,07,15,17,07,26.70
2013,07,15,17,08,26.80
2013,07,15,17,09,26.80
2013,07,15,17,10,26.90
2013,07,15,17,11,27.00
2013,07,15,17,12,27.10
2013,07,15,17,13,27.20
2013,07,15,17,14,27.20
2013,07,15,17,15,27.20
2013,07,15,17,16,27.20
2013,07,15,17,17,27.10
2013,07,15,17,18,27.10
2013,07,15,17,19,27.10